Seldovia, AK

7:14 AM AKDT on May 28, 2017 (GMT -0800)
Seldovia

Weather History for PASO - April, 2014

Change the Weather History Date:

Tuesday, April 8, 2014

  Actual Average (PAHO) Record (PAHO)
Temperature  
Mean Temperature 26 °F -  
Max Temperature 28 °F 40 °F 53 °F (1940)
Min Temperature 24 °F 26 °F 7 °F (1949)
Degree Days  
Heating Degree Days 39    
Moisture  
Dew Point 19 °F    
Average Humidity 71    
Maximum Humidity 86    
Minimum Humidity 58    
Precipitation  
Precipitation 0.03 in - - ()
Sea Level Pressure  
Sea Level Pressure 29.45 in    
Wind  
Wind Speed 8 mph (North)    
Max Wind Speed 15 mph    
Max Gust Speed 23 mph    
Visibility 8 miles    
Events Snow    
Averages and records for this station are not official NWS values.
T = Trace of Precipitation, MM = Missing Value Source: NWS Daily Summary

Daily Weather History Graph

Daily Weather History Graph

Search for Another Location

Airport or City:

Trip Planner

Search our weather history database for the weather conditions in past years. The results will help you decide how hot, cold, wet, or windy it might be!

Date:

Astronomy

Apr. 08, 2014 Rise Set
Actual Time 7:11 AM AKDT 9:07 PM AKDT
Civil Twilight 6:28 AM AKDT 9:50 PM AKDT
Nautical Twilight 5:32 AM AKDT 10:46 PM AKDT
Astronomical Twilight 4:24 AM AKDT 11:56 PM AKDT
Moon 1:49 PM AKDT (4/8) 4:54 AM AKDT (4/8)
Length of Visible Light 15h 22m
Length of Day
13h 55m
Waxing Gibbous, 64% of the Moon is Illuminated
Apr 8
Waxing Gibbous
Apr 14
Full
Apr 21
Last Quarter
Apr 28
New
May 6
First Quarter

Hourly Weather History & Observations

Time (AKDT) Temp. Windchill Dew Point Humidity Pressure Visibility Wind Dir Wind Speed Gust Speed Precip Events Conditions
12:53 AM 28.0 °F 20.0 °F 17.1 °F 63% 29.35 in 10.0 mi SSW 8.1 mph - N/A   Scattered Clouds
1:53 AM 28.0 °F 19.3 °F 15.1 °F 58% 29.36 in 10.0 mi South 9.2 mph 18.4 mph N/A   Overcast
2:53 AM 28.0 °F 18.6 °F 15.1 °F 58% 29.36 in 10.0 mi SSW 10.4 mph - N/A   Overcast
3:53 AM 27.0 °F 18.7 °F 16.0 °F 63% 29.37 in 10.0 mi South 8.1 mph 16.1 mph N/A   Overcast
4:53 AM 27.0 °F 18.7 °F 16.0 °F 63% 29.38 in 10.0 mi SSW 8.1 mph - N/A   Overcast
5:48 AM 26.6 °F 19.1 °F 17.6 °F 69% 29.38 in 1.8 mi Variable 6.9 mph 17.3 mph 0.00 in Snow Light Snow
5:53 AM 25.0 °F 14.8 °F 19.0 °F 78% 29.37 in 1.0 mi South 10.4 mph 18.4 mph 0.00 in Snow Light Snow
6:18 AM 24.8 °F 15.3 °F 19.4 °F 80% 29.37 in 2.0 mi SSE 9.2 mph - 0.00 in Snow Light Snow
6:29 AM 24.8 °F 14.6 °F 19.4 °F 80% 29.37 in 3.0 mi South 10.4 mph 17.3 mph 0.00 in Snow Light Snow
6:53 AM 26.1 °F 18.4 °F 21.9 °F 84% 29.37 in 7.0 mi Variable 6.9 mph - 0.00 in Snow Light Snow
7:53 AM 28.9 °F 20.4 °F 21.0 °F 72% 29.38 in 10.0 mi North 9.2 mph 20.7 mph 0.00 in   Overcast
8:03 AM 28.4 °F 22.2 °F 21.2 °F 74% 29.38 in 10.0 mi North 5.8 mph - N/A   Overcast
8:50 AM 26.6 °F 20.0 °F 23.0 °F 86% 29.40 in 4.0 mi Variable 5.8 mph - 0.00 in Snow Light Snow
8:53 AM 27.0 °F 23.0 °F 23.0 °F 85% 29.41 in 4.0 mi Variable 3.5 mph - 0.00 in Snow Light Snow
9:42 AM 26.6 °F 19.1 °F 17.6 °F 69% 29.43 in 2.5 mi North 6.9 mph 16.1 mph 0.00 in Snow Light Snow
9:53 AM 27.0 °F 18.0 °F 19.0 °F 72% 29.43 in 2.5 mi North 9.2 mph - 0.00 in Snow Light Snow
10:20 AM 28.4 °F 19.7 °F 19.4 °F 69% 29.43 in 5.0 mi North 9.2 mph - 0.01 in Snow Light Snow
10:40 AM 28.4 °F 20.4 °F 17.6 °F 64% 29.44 in 9.0 mi North 8.1 mph - 0.01 in   Overcast
10:53 AM 28.9 °F 23.9 °F 19.0 °F 67% 29.44 in 10.0 mi Variable 4.6 mph - 0.01 in   Overcast
11:53 AM - - - N/A% 29.48 in 10.0 mi North 9.2 mph - 0.00 in   Overcast
12:53 PM - - - N/A% 29.49 in 10.0 mi North 6.9 mph - N/A   Overcast
1:53 PM - - - N/A% 29.50 in 10.0 mi North 8.1 mph - N/A   Overcast
2:53 PM - - - N/A% 29.51 in 10.0 mi North 5.8 mph - 0.01 in   Overcast
3:53 PM - - - N/A% 29.51 in 10.0 mi North 8.1 mph - N/A   Overcast
4:53 PM - - - N/A% 29.52 in 10.0 mi North 6.9 mph - N/A   Overcast
5:53 PM - - - N/A% 29.53 in 10.0 mi North 8.1 mph - N/A   Overcast
6:53 PM - - - N/A% 29.53 in 10.0 mi North 8.1 mph - 0.01 in   Mostly Cloudy
7:53 PM - - - N/A% 29.53 in 10.0 mi North 9.2 mph 16.1 mph N/A   Overcast
8:53 PM - - - N/A% 29.54 in 10.0 mi North 10.4 mph - N/A   Overcast
9:53 PM - - - N/A% 29.57 in 10.0 mi North 12.7 mph 23.0 mph N/A   Mostly Cloudy
10:53 PM - - - N/A% 29.59 in 10.0 mi North 15.0 mph 23.0 mph N/A   Clear
11:53 PM - - - N/A% 29.60 in 10.0 mi North 10.4 mph 21.9 mph N/A   Clear